{"data":{"norad_id":25153,"intl_designator":"1998-006B","name":"INMARSAT 3-F5","alt_names":[],"object_type":"PAYLOAD","status":"ACTIVE","operator":null,"country":"IM","launch_date":"1998-02-04","launch_site_code":"FRGUI","launch_vehicle":null,"mission":null,"orbit_class":"UNKNOWN","rcs_meters":14.5,"size_class":null,"mass_kg":null,"dimensions":null,"purposes":["comms"],"wikipedia_slug":null,"has_3d_model":false,"image_url":null,"decayed_at":null,"tle_current":{"epoch":"2026-05-25T05:03:14.300352Z","epoch_age_seconds":60827,"freshness":"FRESH","line1":"1 25153U 98006B   26145.21058218 -.00000294  00000+0  00000+0 0  9998","line2":"2 25153   9.6444  53.4885 0005112   7.3641 203.7419  1.00269244103668","mean_motion":1.00269244,"eccentricity":0.0005112,"inclination_deg":9.6444,"raan_deg":53.4885,"arg_perigee_deg":7.3641,"mean_anomaly_deg":203.7419,"bstar":0,"rev_number":10366,"period_min":1436.1332972651,"perigee_km":35765.752335643,"apogee_km":35808.862285906,"semimajor_km":42165.444310775,"source":"CELESTRAK","updated_at":"2026-05-25T13:38:13.808563Z"}}}